Home   Weather   Freising   Past weeks

Flag for Germany Past Weather in Freising, Bavaria, Germany — Yesterday and Last 2 Weeks

Now
43 °F

Light rain. Mostly cloudy.


Feels Like: 40 °F
Forecast: 38 / 44 °F
Wind: 5 mph from North

Location: Munich / Franz Josef Strauss Airport

Current Time: Apr 26, 2017 at 12:53:05 am

Latest Report: Apr 26, 2017 at 12:20 am


Visibility: N/A

Pressure: 29.77 "Hg

Humidity: 93%

Dew Point: 41 °F

Location of FreisingLocation

Past Weather in Freising — Graph

°F

Freising Temperature Yesterday

Maximum temperature yesterday: 54 °F (at 1:50 pm)
Minimum temperature yesterday: 39 °F (at 12:50 am)
Average temperature yesterday: 48 °F

High & Low Weather Summary for the Past Weeks

 TemperatureHumidityPressure
High64 °F (Apr 12, 4:50 pm)100% (Apr 12, 4:20 am)30.51 "Hg (Apr 12, 4:20 am)
Low23 °F (Apr 21, 5:50 am)32% (Apr 12, 4:20 pm)29.74 "Hg (Apr 25, 3:20 am)
Average44 °F70%30.11 "Hg
* Reported Apr 10 11:20 pm — Apr 25 11:20 pm, Freising, Weather by CustomWeather, © 2017

Note: Actual official high and low records may vary slightly from our data, if they occured in-between our weather recording intervals... More about our weather records

Advertising

Freising Weather History for the Previous 24 Hours

Scroll right to see more
 ConditionsComfort  
Time TempWeatherWind HumidityBarometerVisibility
11:20 pm
Tue, Apr 25
43 °FLight rain. Mostly cloudy.2 mph93%29.77 "HgN/A
10:50 pm43 °FLight rain. Mostly cloudy.5 mph93%29.77 "HgN/A
10:20 pm43 °FLight rain. Mostly cloudy.8 mph93%29.77 "HgN/A
9:50 pm45 °FLight rain. Mostly cloudy.6 mph93%29.77 "HgN/A
9:20 pm45 °FLight rain. Partly cloudy.6 mph93%29.77 "HgN/A
8:50 pm46 °FLight rain. Mostly cloudy.12 mph93%29.77 "Hg6 mi
8:20 pm48 °FLight rain. Partly cloudy.7 mph94%29.77 "Hg6 mi
7:50 pm48 °FLight rain. Broken clouds.1 mph94%29.74 "Hg4 mi
7:20 pm50 °FRain. Broken clouds.3 mph88%29.74 "Hg4 mi
6:50 pm50 °FRain. Mostly cloudy.6 mph88%29.74 "Hg4 mi
6:20 pm50 °FLight rain. Mostly cloudy.7 mph88%29.74 "HgN/A
5:50 pm50 °FLight rain. Mostly cloudy.5 mph88%29.74 "HgN/A
4:50 pm52 °FLight rain. Mostly cloudy.8 mph82%29.74 "HgN/A
4:20 pm52 °FLight rain. Overcast.5 mph82%29.74 "HgN/A
3:50 pm54 °FRain showers. Overcast.6 mph77%29.74 "HgN/A
3:20 pm54 °FRain showers. Overcast.5 mph72%29.74 "HgN/A
2:50 pm54 °FSprinkles. Overcast.6 mph72%29.74 "HgN/A
2:20 pm52 °FRain showers. Partly sunny.7 mph77%29.74 "HgN/A
1:50 pm54 °FSprinkles. Partly sunny.6 mph72%29.77 "HgN/A
1:20 pm52 °FSprinkles. Partly sunny.5 mph82%29.77 "HgN/A
12:50 pm52 °FSprinkles. Partly sunny.5 mph88%29.77 "HgN/A
12:20 pm52 °FRain showers. Broken clouds.7 mph88%29.77 "HgN/A
11:50 am52 °FSprinkles. Broken clouds.8 mph94%29.77 "HgN/A
11:20 am52 °FRain showers. Partly sunny.13 mph88%29.80 "HgN/A
10:50 am52 °FSprinkles. Partly sunny.8 mph88%29.77 "HgN/A
10:20 am52 °FSprinkles. Partly sunny.9 mph88%29.77 "HgN/A
9:50 am52 °FRain showers. Partly sunny.13 mph82%29.77 "HgN/A
9:20 am52 °FRain showers. Broken clouds.15 mph82%29.77 "HgN/A
8:50 am52 °FSprinkles. Partly sunny.14 mph82%29.74 "HgN/A
8:20 am52 °FSprinkles. Broken clouds.12 mph77%29.74 "HgN/A
7:50 am52 °FSprinkles. Broken clouds.8 mph72%29.74 "HgN/A
7:20 am52 °FSprinkles. Broken clouds.12 mph72%29.74 "HgN/A
6:50 am50 °FSprinkles. Partly sunny.5 mph71%29.74 "HgN/A
5:50 am45 °FScattered showers. Partly cloudy.2 mph81%29.74 "HgN/A
4:50 am43 °FScattered showers. Passing clouds.2 mph87%29.74 "HgN/A
4:20 am41 °FClear.2 mph87%29.74 "Hg10 mi
3:50 am41 °FClear.5 mph87%29.74 "Hg10 mi
3:20 am39 °FPassing clouds.3 mph87%29.74 "HgN/A
2:50 am41 °FClear.3 mph81%29.77 "Hg10 mi
2:20 am41 °FClear.2 mph81%29.77 "Hg10 mi
1:50 am41 °FClear.1 mph81%29.77 "Hg10 mi
12:50 am39 °FClear.2 mph87%29.80 "Hg10 mi
12:20 am41 °FClear.1 mph76%29.80 "Hg10 mi
Weather by CustomWeather, © 2017

See weather overviewHow to use our weather pages